Weather in Prymorsk

Ukraine / Zaporizhia Region     46°43′33″N   36°21′24″E
temp.,
°C
wind,
m/s
gust,
m/s
humid.,
%
clouds,
%
prec.,
mm/h
press.,
hPa
HPBL,
m
1 july, fri
fri100:00+20nne475741 0.0 1014109
03:00+22ne4850100 0.0 1014191
06:00+21ne484360 0.0 1014235
09:00+25ne45380 0.0 1014784
12:00+27ne24370 0.0 10141736
15:00+29nnw25340 0.0 10122022
18:00+28n35350 0.0 10121916
21:00+23n59440 0.0 1014146
2 july, sat
sat200:00+20nne510550 0.0 1015229
03:00+18nne511640 0.0 1015260
06:00+17nne611630 0.0 1017421
09:00+20ne67390 0.0 10181159
12:00+24nne67250 0.0 10191693
15:00+26nne56260 0.0 10181574
18:00+26nne56280 0.0 10181629
21:00+20nne510430 0.0 1019280
3 july, sun
sun300:00+17n59560 0.0 1019177
03:00+16n58660 0.0 1019147
06:00+16n58690 0.0 1019202
09:00+23n57440 0.0 10191432
12:00+26n45330 0.0 10181671
15:00+28nnw25315 0.0 10172205
18:00+27w253711 0.0 10161589
21:00+23nnw474891 0.0 1017107
4 july, mon
mon400:00+21nne49566 0.0 1017185
03:00+20n466239 0.0 1017108
06:00+20nnw366422 0.0 1017138
09:00+26nnw454897 0.0 1017788
12:00+30nnw453955 0.0 10162074
15:00+30wnw1537100 0.0 10142261
18:00+28ssw265077 0.0 1015760
21:00+25n49528 0.0 1016172
5 july, tue
tue500:00+22nne49600 0.0 1016136
03:00+21ne59590 0.0 1017154
06:00+21ne58560 0.0 1018177
09:00+27ene56455 0.0 1018723
12:00+28ese77476 0.0 10181361
15:00+28sse77440 0.0 1017730
18:00+27sse34420 0.0 1017405
21:00+23nnw22460 0.0 101712